Probability
22 23 23 22 20 15 11 8 7 9 8 7 5 4 3 3 2 1 0 0 0 0 0 0 0 0 0 0 0 0 0 0 0 0 0 0 0 0 0 0 0 0 0
26 26 24 22 20 17 14 11 10 11 10 7 6 3 2 2 2 1 0 0 0 0 0 0 0 0 0 0 0 0 0 0 0 0 0 0 0 0 0 0 0 0 0
28 27 25 22 19 18 16 13 10 9 8 6 5 3 2 1 1 0 0 0 0 0 0 0 0 0 0 0 0 0 0 0 0 0 0 0 0 0 0 0 0 0 0
26 26 25 21 17 16 15 11 7 5 5 4 4 3 3 2 1 0 0 0 0 0 0 0 0 0 0 0 0 0 0 0 0 0 0 0 0 0 0 0 0 0 0
24 25 23 19 15 13 13 10 6 3 3 3 3 3 3 2 1 0 0 0 0 0 0 0 0 0 0 0 0 0 0 0 0 0 0 0 0 0 0 0 0 0 0
25 24 21 18 13 10 10 8 4 2 1 1 2 3 2 1 0 0 0 0 0 1 0 0 0 0 0 0 0 0 0 0 0 0 0 0 0 0 0 0 0 0 0
23 22 20 16 12 8 7 5 2 1 0 1 2 3 2 1 1 0 0 0 0 0 0 0 0 0 0 0 0 0 0 0 0 0 0 0 0 0 0 0 0 0 0
17 18 18 15 10 6 5 4 2 0 0 0 1 1 2 2 2 1 1 1 1 1 0 0 0 0 0 0 0 0 0 0 0 0 0 0 0 0 0 0 0 0 0
11 12 13 10 6 4 4 4 3 1 0 0 0 0 1 3 3 3 2 2 2 2 1 1 1 1 1 1 1 1 0 0 0 0 0 0 0 0 0 0 0 0 0
8 8 8 6 4 2 2 2 1 0 0 0 0 0 1 2 2 3 3 3 3 3 3 2 2 2 2 2 2 2 1 1 0 0 0 0 0 0 0 0 0 0 0
7 6 6 5 4 3 3 2 1 0 0 1 1 0 0 1 1 1 2 3 3 3 3 3 3 3 3 2 3 3 3 2 1 0 0 0 0 0 0 0 0 0 0
5 5 5 6 6 5 4 3 1 0 0 1 1 0 0 0 0 0 1 2 2 2 2 2 2 2 2 2 2 2 3 3 2 1 0 0 0 0 0 0 0 0 0
6 6 7 7 8 7 7 5 3 1 1 1 1 0 0 0 0 0 0 1 1 1 1 0 1 1 1 1 1 1 1 2 3 2 1 0 0 0 0 0 0 0 0
9 10 10 11 10 10 9 9 6 3 2 2 1 0 0 0 0 0 0 0 0 0 0 0 0 0 0 0 0 0 0 1 2 3 2 1 0 0 0 0 0 0 0
14 14 15 15 15 13 12 12 10 6 4 3 2 1 0 0 0 0 0 0 0 0 0 0 0 0 0 0 0 0 0 0 1 2 2 1 0 0 0 0 0 0 0
17 18 19 20 19 17 16 16 13 8 5 4 3 2 1 0 0 0 0 1 1 0 0 0 1 1 1 1 0 0 0 0 0 1 2 2 1 0 0 0 0 0 0
18 19 20 21 21 20 19 17 13 9 7 5 5 3 1 1 1 1 1 2 3 2 1 1 2 2 2 2 1 0 0 0 0 0 1 1 1 0 0 0 0 0 0
17 18 20 21 21 20 18 15 12 9 7 6 5 3 2 2 2 2 3 3 4 4 3 3 4 4 3 3 1 0 0 0 0 0 0 0 0 0 0 0 0 0 0
17 19 20 20 20 20 16 12 10 9 7 5 5 4 3 3 3 3 3 3 4 4 5 5 5 4 4 3 2 1 1 1 0 0 0 0 0 0 0 0 0 0 0
19 20 20 20 20 18 16 13 10 8 7 6 6 5 4 3 2 2 2 2 3 3 4 4 4 4 3 3 2 1 2 2 1 1 0 0 0 0 0 0 0 0 0
22 20 18 18 19 16 13 12 10 9 8 8 7 7 5 3 1 1 2 2 2 3 3 3 3 3 3 3 2 1 2 3 3 2 1 0 0 0 0 0 0 0 0
25 21 17 15 14 12 10 10 9 9 9 9 8 8 6 3 2 2 2 2 3 3 2 1 2 3 3 3 3 1 1 2 3 3 2 1 0 0 0 0 0 0 0
25 22 17 13 10 8 8 7 7 7 8 9 8 7 6 4 3 3 3 3 3 3 2 1 2 3 3 3 3 2 1 1 2 2 2 1 0 0 0 0 0 0 0
25 22 18 13 9 6 5 5 6 6 6 7 7 7 6 4 3 3 3 3 3 3 2 2 2 3 3 3 3 2 2 1 1 1 1 0 0 0 0 0 0 0 0
24 22 18 12 7 4 4 4 5 5 5 6 7 6 5 4 3 3 3 2 2 1 1 1 2 2 2 2 1 1 2 2 2 2 1 0 0 0 0 0 0 0 0
21 20 17 10 5 4 4 5 5 5 4 5 6 6 5 4 3 3 2 1 1 0 0 0 1 1 1 1 0 0 1 3 3 2 1 1 0 0 0 0 0 0 0
Wind_Speed
3 4 5 5 5 4 5 5 5 4 3 3 3 3 2 2 2 3 4 4 4 4 4 3 3 3 3 3 3 2 2 1 1 1 1 2 1 2 3 3 4 5 5
3 3 4 5 5 5 5 4 5 5 4 3 2 2 2 2 2 2 2 3 4 4 4 4 3 3 3 3 3 3 2 1 2 2 1 1 2 2 2 2 4 4 3
5 5 5 5 5 5 5 5 5 5 5 4 3 2 2 1 1 1 1 3 4 5 4 4 4 4 4 4 4 4 4 3 2 2 3 2 3 2 2 1 2 2 2
4 5 5 5 5 5 4 4 5 5 4 5 4 4 3 2 3 2 2 2 3 4 4 5 5 5 4 4 5 5 4 4 3 2 2 2 3 2 1 2 1 1 2
4 4 5 5 4 4 4 4 4 4 4 4 5 4 3 2 2 1 2 2 2 3 4 5 4 4 4 5 5 4 5 4 4 3 3 2 1 2 2 2 1 1 1
4 4 3 3 3 4 4 4 4 4 4 4 4 4 4 3 3 2 2 2 1 2 3 3 4 4 4 5 5 5 5 4 4 3 3 3 3 3 3 3 3 2 1
5 4 4 4 4 4 4 4 4 4 4 4 4 3 4 4 4 3 3 2 2 2 3 3 3 3 3 4 4 4 4 5 5 5 3 3 3 2 3 3 2 2 1
4 5 5 5 4 4 4 4 4 4 4 4 3 3 3 2 2 3 3 3 2 2 2 3 3 2 2 3 3 3 3 3 4 4 4 3 3 3 3 3 3 2 1
5 4 4 4 4 4 4 4 4 4 4 4 3 2 2 2 2 2 2 2 2 2 2 2 2 2 2 2 2 2 2 2 2 2 3 2 2 2 3 3 3 3 3
4 4 4 4 4 3 3 3 3 4 3 4 3 2 2 2 2 2 2 2 2 1 2 2 1 1 1 1 2 2 1 2 1 1 1 1 1 1 1 2 2 3 3
5 4 3 3 3 2 3 3 3 3 3 3 3 2 2 1 2 2 2 2 1 2 2 2 2 1 1 1 2 2 2 2 1 1 1 1 1 1 0 1 1 1 2
4 3 3 2 2 2 3 3 3 3 3 3 3 2 2 1 1 1 1 2 2 2 2 2 2 2 2 2 2 2 2 2 1 1 1 0 0 0 0 1 1 1 2
2 2 3 2 2 2 2 3 3 3 3 3 3 2 2 2 1 1 1 2 2 2 2 3 2 2 2 2 2 2 2 2 1 1 1 1 1 1 1 1 1 1 1
3 2 2 2 2 2 2 3 3 3 3 3 3 3 2 2 2 2 2 3 3 3 2 2 2 2 2 2 2 3 2 2 2 2 2 2 2 1 1 1 1 2 2
3 3 3 2 2 2 2 3 3 3 4 4 4 3 3 3 3 2 3 3 3 3 2 2 2 2 2 2 3 3 3 3 3 3 3 3 4 4 3 2 2 2 3
4 4 3 3 3 3 3 3 2 3 4 4 4 3 3 3 3 3 3 4 4 3 3 3 3 3 2 4 5 4 3 3 3 3 3 3 4 5 6 6 6 5 3
4 4 4 4 3 3 3 3 3 3 3 3 3 3 3 2 3 3 4 4 3 3 3 3 3 3 3 5 5 6 4 4 3 2 2 2 3 4 4 6 7 7 6
3 3 3 3 3 3 3 3 4 4 3 3 3 3 3 3 3 3 3 3 2 3 3 3 3 3 3 5 5 6 4 4 3 2 2 3 3 3 4 5 6 5 5
2 3 3 3 3 3 4 4 4 4 3 3 3 3 3 4 4 3 3 2 3 3 2 2 2 3 3 4 5 5 4 4 3 3 3 3 3 4 6 5 5 5 4
2 2 3 3 3 3 5 5 4 4 3 4 4 4 3 4 4 4 3 2 3 3 3 3 2 2 2 3 5 5 3 4 3 3 3 4 4 5 5 4 4 4 2
4 4 4 3 2 3 5 4 4 4 3 3 4 4 3 3 4 3 3 4 4 4 4 3 3 3 2 3 4 4 3 3 3 3 2 2 5 6 5 4 3 4 4
5 5 5 4 3 4 5 3 2 2 3 4 4 4 3 3 3 4 4 4 5 4 3 3 2 2 2 2 3 4 4 4 4 2 2 2 5 6 6 4 5 6 5
4 4 5 4 4 3 3 2 0 1 3 4 3 3 4 4 3 4 4 4 3 3 2 2 1 1 2 2 3 4 5 5 3 3 4 5 6 6 5 6 6 5 3
3 4 5 4 3 3 3 2 1 2 4 4 4 4 5 5 4 3 3 3 3 3 2 2 2 1 1 1 1 2 3 5 4 3 5 7 7 5 5 4 4 3 2
3 3 4 4 3 3 3 2 2 3 4 3 3 4 4 4 4 4 2 2 2 2 3 2 2 2 2 1 2 2 2 3 3 4 3 3 3 3 2 2 2 2 2
3 4 4 3 2 2 2 2 2 3 4 3 3 2 3 3 4 4 4 6 4 4 4 3 2 1 2 3 3 4 4 5 6 4 2 2 2 2 1 1 1 1 1
Wind_Direction
179 153 154 150 146 149 157 165 165 161 152 153 162 163 187 184 186 203 200 194 194 187 181 190 183 177 182 191 180 159 156 164 134 96 360 332 268 237 233 227 225 229 229
153 156 149 150 156 159 160 164 168 164 168 175 166 160 161 180 187 195 194 191 186 186 193 191 190 187 182 187 183 167 155 175 161 149 125 336 331 312 251 231 228 233 226
178 174 168 167 163 169 173 178 176 172 173 162 136 118 103 86 108 185 207 206 194 195 197 193 192 192 188 198 199 184 177 184 192 181 160 170 232 300 324 271 240 230 225
171 173 174 174 179 185 175 174 176 175 175 164 163 163 171 184 197 202 213 212 201 197 199 200 198 199 198 203 208 197 189 175 191 198 205 193 171 179 292 320 301 248 238
169 175 180 181 179 173 170 172 169 175 175 170 171 169 177 193 189 191 200 214 207 203 204 201 198 204 206 209 209 199 195 189 189 189 181 185 190 191 197 256 291 313 268
169 169 164 157 162 162 168 166 168 179 176 174 173 175 184 192 181 188 200 214 216 215 215 205 202 208 211 213 210 205 201 200 198 197 189 179 182 192 192 221 244 261 279
164 164 164 172 179 175 175 170 174 183 180 181 186 188 193 192 196 194 199 199 206 215 218 204 202 209 216 214 202 200 208 202 200 202 203 204 210 186 183 195 223 245 263
167 175 182 182 184 183 175 173 180 186 179 182 187 184 187 191 195 194 189 195 212 222 211 199 204 210 213 212 192 195 209 199 200 204 199 204 214 202 198 191 185 220 246
179 181 176 172 178 181 182 183 182 176 175 175 171 175 182 186 191 189 186 200 214 211 193 188 190 198 200 197 180 180 200 180 190 198 196 202 210 202 209 202 191 193 224
176 177 176 175 179 180 175 169 168 173 169 164 174 179 179 182 185 179 189 199 201 185 161 163 166 170 168 161 152 150 157 149 161 159 152 175 217 207 207 207 209 208 207
177 177 182 177 166 162 160 158 158 156 160 159 160 154 161 167 167 175 192 181 161 147 149 151 146 136 123 124 132 134 130 139 137 135 148 172 157 170 204 204 198 195 185
174 163 150 142 151 167 170 167 163 165 167 152 143 146 146 131 131 154 165 147 133 129 131 124 119 113 111 118 132 140 136 146 152 154 134 175 153 125 148 180 192 186 180
148 125 115 130 155 177 171 169 170 169 160 144 141 142 145 141 133 115 108 107 110 109 108 111 111 108 111 111 111 117 114 125 133 126 127 122 111 95 66 87 109 132 132
152 137 136 156 161 173 179 172 175 166 156 147 145 151 158 152 135 113 99 101 106 107 103 100 103 108 109 108 106 108 110 105 88 81 86 83 92 93 90 88 90 107 108
155 155 166 171 176 183 177 172 168 158 151 148 152 164 157 140 123 112 95 92 94 96 97 95 85 85 95 99 114 113 107 101 91 75 66 70 77 79 85 91 95 107 109
187 176 172 171 185 194 183 165 158 154 148 153 161 152 140 136 128 119 105 91 82 81 88 93 91 79 71 87 103 118 112 104 99 89 73 68 61 72 76 77 82 94 113
185 174 178 185 195 193 181 161 154 134 137 145 141 133 134 128 122 117 108 105 98 86 78 79 81 77 77 87 93 103 108 102 95 93 90 81 67 78 85 77 73 69 70
185 183 175 176 177 163 156 144 134 135 137 134 129 127 127 124 116 113 111 105 98 95 82 76 86 87 76 81 95 100 100 96 88 83 95 98 78 87 101 93 78 65 55
180 178 167 159 143 137 142 135 134 134 139 145 148 150 145 141 134 128 120 108 104 91 81 80 91 92 77 82 103 107 103 95 84 76 81 97 92 91 103 102 93 75 57
102 121 116 113 116 124 128 132 141 144 166 174 169 155 159 153 148 144 129 109 110 104 98 78 65 81 83 85 104 116 114 106 96 79 70 79 93 94 104 110 112 101 72
74 87 94 96 102 110 118 130 152 172 179 163 149 149 151 146 136 123 117 119 115 105 93 81 57 50 58 81 98 113 120 124 112 97 76 68 88 93 97 102 104 117 113
70 81 86 78 79 99 115 121 173 183 139 136 137 138 134 130 124 121 116 118 119 112 101 89 61 34 31 51 91 112 118 120 116 112 98 87 95 94 91 92 101 105 102
78 85 95 82 67 72 103 119 244 144 123 121 126 125 118 112 117 124 125 117 117 120 121 118 106 51 26 40 84 113 117 115 110 104 101 94 94 93 85 86 95 99 98
77 87 92 88 73 66 77 117 164 124 122 128 134 131 124 116 105 99 112 123 133 140 144 149 153 138 83 57 79 105 108 107 104 99 92 89 86 81 78 78 80 86 101
76 82 90 89 72 60 73 84 117 117 115 123 132 133 131 130 120 105 85 118 119 154 159 169 169 164 171 207 150 135 130 130 127 116 90 79 79 75 70 69 69 76 95
86 84 80 76 58 57 60 53 87 120 124 127 133 138 136 132 131 122 88 53 71 82 85 99 123 105 114 122 121 117 122 127 134 118 106 108 109 111 112 107 84 73 85